Location: Bremen
(53.0793°N, 8.8017°E)
Time: 19:27:47
(UTC+01:00)

Vanguard 1 Rocket - Pass Details

Date: 12 December 2021
Orbit: 651 x 4224 km, 34.3° (Epoch: 21 January)

Event Time Altitude Azimuth Distance (km) Brightness Sun altitude
Rises 02:30:35 0° 234° (SW) 4,048 - -51.0°
Reaches altitude 10° 02:33:18 10° 223° (SW) 3,425 - -50.6°
Maximum altitude 02:40:45 29° 167° (SSE) 3,115 - -49.7°
Exits shadow 02:44:29 25° 142° (SE) 3,729 10.4 -49.2°
Drops below altitude 10° 02:53:06 10° 116° (ESE) 5,798 11.7 -48.2°
Sets 02:59:36 0° 108° (ESE) 7,416 12.5 -47.3°
